Kuchera_Ratio
0.0 0.0 0.0 0.0 0.0 0.0 0.0 0.0 0.0 0.0 0.0 0.0 0.0 0.0 0.0 0.0 0.0 0.0 0.0 0.0 0.0 0.0 0.0 0.0 0.0 0.0 0.0 0.0 0.0 0.0 0.0 0.0 0.0 0.0 0.0 0.0 0.0 0.0 0.0 0.0 0.0 0.0 0.0 0.0
0.0 0.0 0.0 0.0 0.0 0.0 0.0 0.0 0.1 0.0 0.0 0.0 0.0 0.0 0.0 0.0 0.0 0.0 0.0 0.0 0.0 0.0 0.0 0.0 0.0 0.0 0.0 0.0 0.0 0.0 0.0 0.0 0.0 0.0 0.0 0.0 0.0 0.0 0.0 0.0 0.0 0.0 0.0 0.0
0.0 0.0 0.0 0.0 0.0 0.0 0.0 0.0 0.0 0.0 0.0 0.0 0.0 4.1 0.0 0.0 0.0 0.0 0.0 0.0 0.0 0.0 0.0 0.0 0.0 0.0 0.0 0.0 0.0 0.0 0.0 0.0 0.0 0.0 0.0 0.0 0.0 0.0 0.0 0.0 0.0 0.0 0.0 0.0
0.0 0.0 0.0 0.0 0.0 0.0 0.0 0.0 0.0 0.0 0.0 9.6 0.0 10.2 2.6 0.0 0.0 0.0 0.0 0.0 0.0 0.0 0.0 0.0 0.0 0.0 0.0 0.0 0.0 0.0 0.0 0.0 0.0 0.0 0.0 0.0 0.5 2.6 2.0 0.8 0.0 0.0 0.0 0.0
0.0 0.0 0.0 0.0 0.0 0.0 0.0 0.0 0.0 0.0 0.0 0.2 0.8 9.6 2.8 0.0 0.0 0.0 0.0 0.0 0.0 0.0 0.0 0.0 0.0 0.0 0.0 0.0 0.0 0.0 0.0 0.0 0.0 0.0 0.0 0.0 0.8 2.0 2.6 2.6 3.0 1.4 0.0 0.0
0.0 0.0 0.0 0.0 0.0 0.0 0.0 0.0 0.0 0.0 0.4 10.1 4.6 9.0 10.9 3.6 0.0 0.0 0.0 0.0 0.0 0.0 0.0 0.0 0.0 0.0 0.0 0.0 0.0 0.0 0.0 0.0 0.0 0.0 0.0 0.0 0.0 0.9 2.1 2.5 3.8 1.8 0.0 0.0
0.0 0.0 0.0 0.0 0.0 0.0 0.0 0.0 10.1 14.4 15.2 14.6 0.6 6.3 5.6 0.0 0.0 0.0 0.0 0.0 0.0 0.0 0.0 0.0 0.0 0.0 0.0 0.0 0.0 0.0 0.0 0.0 0.0 0.0 0.0 0.0 0.0 0.0 1.7 2.3 3.2 4.0 2.4 0.0
6.3 11.6 0.0 0.0 0.0 0.0 0.0 0.0 10.1 14.3 15.2 11.9 0.4 10.3 1.5 0.0 0.0 0.0 0.0 0.0 0.0 0.0 0.0 0.0 0.0 0.0 0.0 0.0 0.0 0.0 0.0 0.0 0.0 0.0 0.0 0.0 0.3 1.0 1.4 1.9 3.0 3.8 2.4 1.6
4.7 6.8 0.0 0.0 0.0 0.0 0.0 1.3 0.0 9.9 11.2 13.0 10.3 5.3 0.0 0.0 0.0 0.0 0.0 0.0 0.0 0.0 0.0 0.0 0.0 0.0 0.0 0.0 0.0 0.0 0.0 0.0 0.0 0.0 0.0 0.0 0.0 0.0 1.9 2.8 1.5 1.6 1.1 0.0
1.8 8.8 0.0 0.0 0.0 0.0 0.0 0.0 9.6 11.2 14.0 14.3 12.6 11.2 9.1 5.2 0.8 0.0 0.0 0.0 0.0 0.0 0.0 0.0 0.0 0.0 0.0 0.0 0.0 0.0 0.0 0.0 0.0 0.0 0.0 0.0 0.0 1.0 1.5 2.7 1.4 2.0 2.4 2.3
0.0 2.4 5.9 0.0 0.0 3.2 4.4 4.5 7.2 10.0 12.9 13.0 12.9 12.2 3.5 0.7 0.0 0.0 0.0 0.0 0.0 0.0 0.0 0.0 0.0 0.0 0.0 0.0 0.0 0.0 0.0 0.0 0.0 0.0 0.0 0.0 1.8 2.8 2.6 4.0 4.4 3.9 4.0 3.5
0.0 3.6 6.2 4.8 0.0 0.0 0.0 4.1 5.3 9.4 12.6 13.1 13.4 8.7 1.6 0.1 0.0 0.0 0.0 0.0 0.0 0.0 0.0 0.0 0.0 0.0 0.0 0.0 0.0 0.0 0.0 0.0 0.0 0.0 0.0 0.5 3.0 3.8 5.2 5.2 5.4 4.4 6.2 3.7
0.0 3.6 12.5 7.7 4.2 0.0 1.3 5.9 5.4 6.7 11.3 12.0 13.3 7.4 2.3 0.9 0.6 0.0 0.0 0.0 0.0 0.0 0.0 0.0 0.0 0.0 0.0 0.0 0.0 0.0 0.0 0.0 0.0 0.0 0.0 1.8 4.7 5.6 6.6 6.6 5.6 4.3 4.9 4.1
0.0 3.0 4.6 6.0 6.7 4.5 7.4 6.8 6.7 5.1 10.7 10.3 7.4 5.6 3.7 1.1 0.4 0.0 0.0 0.0 0.0 0.0 0.0 0.0 0.0 0.0 0.0 0.0 0.0 0.0 0.0 0.0 0.0 0.0 0.0 3.1 5.3 6.2 6.6 6.6 2.6 1.1 1.7 4.8
0.0 2.7 2.8 0.0 0.0 0.0 2.4 3.2 6.5 7.2 5.5 8.4 5.0 4.1 1.1 0.0 0.0 0.0 0.0 0.0 0.0 0.0 0.0 0.0 0.0 0.0 0.0 0.0 0.0 0.0 0.0 0.0 0.0 0.0 1.0 4.1 5.0 5.0 5.8 2.4 1.6 1.6 3.5 4.5
0.0 3.6 0.0 3.0 0.0 0.0 2.2 2.0 3.0 3.3 5.0 5.6 5.0 3.7 0.0 0.0 0.0 0.0 0.0 0.0 0.0 0.0 0.0 0.0 0.0 0.0 0.0 0.0 0.0 0.0 0.0 0.0 0.0 0.0 2.2 3.0 4.2 4.4 6.0 3.0 2.2 3.8 5.8 6.8
0.0 2.9 5.1 9.6 1.2 2.1 6.0 0.8 2.3 3.3 3.3 1.8 6.5 0.0 0.0 0.0 0.0 0.0 0.0 0.0 0.0 0.0 0.0 0.0 0.0 0.0 0.0 0.0 0.0 0.0 0.0 0.0 0.0 0.0 2.0 3.0 4.0 5.4 6.4 2.0 3.0 6.8 8.8 9.0
0.0 1.6 3.5 8.4 3.7 12.9 0.0 0.0 0.0 0.0 0.0 0.0 0.0 0.0 0.0 0.0 0.0 0.0 0.0 0.0 0.0 0.0 0.0 0.0 0.0 0.0 0.0 0.0 0.0 0.0 0.0 0.0 0.0 0.8 3.0 3.8 4.8 6.2 6.6 5.2 4.6 7.4 8.0 9.8
0.0 0.0 4.1 11.2 12.1 3.7 0.0 0.0 0.0 0.0 0.0 0.0 0.0 0.0 0.0 0.0 0.0 0.0 0.0 0.0 0.0 0.0 0.0 0.0 0.0 0.0 0.0 0.0 0.0 0.0 0.0 0.0 0.4 2.0 3.8 4.2 5.4 7.2 8.2 8.4 5.8 5.6 8.4 10.2
0.0 0.0 4.3 7.6 11.5 11.6 0.0 0.0 0.0 0.0 1.3 0.0 0.0 0.0 0.0 0.0 0.6 0.0 0.0 0.0 0.0 0.0 0.0 0.0 0.0 0.0 0.0 0.0 0.0 0.0 0.4 1.2 2.0 2.6 4.4 4.6 6.4 8.2 9.4 9.0 7.4 7.6 10.6 10.0
5.6 5.2 6.1 10.9 12.1 5.6 0.0 0.0 0.0 3.5 0.0 0.0 0.0 0.0 0.0 0.0 0.0 0.0 0.0 0.0 0.0 0.0 0.0 0.0 0.0 0.0 0.0 0.0 0.0 0.3 1.4 2.6 1.6 1.0 3.2 4.8 7.2 8.4 9.6 10.8 10.8 11.2 11.8 12.1
5.5 5.9 8.1 7.7 13.4 9.6 0.0 0.0 0.0 0.0 0.0 0.0 0.0 0.0 0.0 0.0 0.0 0.0 0.0 0.0 0.0 0.0 0.0 0.0 0.0 0.0 0.0 0.0 0.0 1.3 2.7 1.8 1.0 2.4 4.0 6.8 9.2 8.6 8.0 5.8 12.0 12.2 12.7 12.4
4.9 0.0 4.5 3.9 1.3 0.0 0.0 0.0 0.0 0.0 0.0 0.0 0.0 0.0 0.0 0.0 0.0 0.0 0.0 0.0 0.0 0.0 0.0 0.0 0.0 0.0 0.0 0.0 0.0 1.7 2.6 1.6 2.8 5.0 7.0 9.6 9.6 10.2 10.4 9.0 9.0 12.9 12.9 12.5
0.0 0.0 0.0 0.0 0.0 0.0 0.0 0.0 0.0 0.0 0.0 0.0 0.0 0.0 0.0 0.0 0.0 0.0 0.0 0.0 0.0 0.0 0.0 0.0 0.0 0.0 0.0 0.0 0.8 2.4 2.0 2.0 4.4 7.8 9.2 10.2 11.8 11.8 12.3 12.4 11.4 13.0 12.8 12.2
0.0 0.0 0.0 0.0 0.0 0.0 0.0 0.0 0.0 0.0 0.0 0.0 0.0 0.0 0.0 0.0 0.0 0.0 0.0 0.0 0.0 0.0 0.0 0.0 0.0 0.0 0.0 1.2 2.8 2.6 4.2 4.8 7.0 9.4 9.6 10.8 11.4 12.5 12.4 12.5 12.9 12.9 12.2 10.0
0.0 0.0 0.0 0.0 0.0 0.0 0.0 0.0 0.0 0.0 0.0 0.0 0.0 0.0 0.0 0.0 0.0 0.0 0.0 0.0 0.0 0.0 0.0 0.0 0.0 0.0 0.5 2.6 4.0 4.4 4.4 6.8 9.6 10.0 10.4 11.6 12.1 12.2 12.3 12.6 12.6 9.4 8.4 7.0